Location: Lane
(33.5226°N, 79.8788°W)
Time: 10:29:19
(UTC+00:00)

Altair - Pass Details

Date: 09 October 2022
Orbit: 1501 x 1682 km, 47.2° (Epoch: 30 November)

Event Time Altitude Azimuth Distance (km) Brightness Sun altitude
Rises 16:14:58 0° 302° (WNW) 4,910 9.8 48.2°
Reaches altitude 10° 16:18:19 10° 295° (WNW) 3,933 9.5 48.4°
Maximum altitude 16:27:34 42° 229° (SW) 2,250 9.2 49.0°
Drops below altitude 10° 16:36:47 10° 163° (SSE) 3,913 10.6 49.4°
Sets 16:40:09 0° 156° (SSE) 4,884 10.8 49.5°
